Regional Weather Roundup
Issued by NWS

Home | Current Version | Previous Version | Graphics & Text | Print | Product List | Glossary Off
Versions: 1 2 3 4 5 6 7 8 9 10 11 12 13 14 15 16 17 18 19 20 21 22 23 24 25 26 27 28 29 30 31 32 33 34 35 36 37 38 39 40 41 42 43 44 45 46 47 48 49 50

000
ASUS43 KLSX 241957
RWRMO

WEATHER SUMMARY FOR MISSOURI
NATIONAL WEATHER SERVICE SPRINGFIELD MO
200 PM CST FRI FEB 24 2017

NOTE: "FAIR" INDICATES FEW OR NO CLOUDS BELOW 12,000 FEET WITH NO
       SIGNIFICANT WEATHER AND/OR OBSTRUCTIONS TO VISIBILITY.
       CURRENT SKY AND/OR WEATHER CONDITIONS ARE NOT AVAILABLE FOR
       CHILLICOTHE AND FARMINGTON.

MOZ001>031-035>038-043-044-053-054-242100-
...NORTHERN AND WESTERN MISSOURI...

CITY           SKY/WX    TMP DP  RH WIND       PRES   REMARKS
KANSAS CTY INT FLURRIES  33  29  85 NW20G29   29.75R WCI  21
LEE`S SUMMIT   CLOUDY    39  31  72 W16G24    29.73R
ST JOSEPH      FLURRIES  30  28  92 NW21      29.79R WCI  17
CHILLICOTHE      N/A     40  32  73 W8G18     29.69R

$$
MOZ066>068-077>081-088>096-101>105-242100-
...SOUTHWEST MISSOURI...

CITY           SKY/WX    TMP DP  RH WIND       PRES   REMARKS
SPRINGFIELD    MOSUNNY   48  31  51 MISG      29.74F
JOPLIN         MOSUNNY   47  28  47 NW17G28   29.79F

$$
MOZ032>034-039>042-045>050-055>058-069>072-242100-
...CENTRAL MISSOURI...

CITY           SKY/WX    TMP DP  RH WIND       PRES   REMARKS
COLUMBIA       NOT AVBL
JEFFERSON CITY CLOUDY    45  34  65 SW15      29.69R
ROLLA          LGT RAIN  49  36  61 W17G26    29.66R
SEDALIA        CLOUDY    46  31  55 W16G24    29.70S
WARRENSBURG    CLOUDY    41  34  75 W14G20    29.72R

$$
MOZ051-052-059>065-242100-
...EAST CENTRAL MISSOURI...

CITY           SKY/WX    TMP DP  RH WIND       PRES   REMARKS
ST LOUIS INTL  CLOUDY    55  41  59 W15       29.62R

$$
MOZ072>076-082>087-097>100-106>115-242100-
...SOUTH CENTRAL AND SOUTHEAST MISSOURI...

CITY           SKY/WX    TMP DP  RH WIND       PRES   REMARKS
CAPE GIRARDEAU CLOUDY    66  55  67 SW18      29.58F
POPLAR BLUFF   CLOUDY    64  57  78 SW15G24   29.61R

$$


USA.gov is the U.S. government's official web portal to all federal, state and local government web resources and services.